Regional Weather Roundup
Issued by NWS

Home | Current Version | Previous Version | Text Only | Print | Product List | Glossary Off
Versions: 1 2 3 4 5 6 7 8 9 10 11 12 13 14 15 16 17 18 19 20 21 22 23 24 25 26 27 28 29 30 31 32 33 34 35 36 37 38 39 40 41 42 43 44 45 46 47 48 49 50

000
ASUS43 KMKX 030728
RWRWI

WISCONSIN REGIONAL WEATHER ROUNDUP
NATIONAL WEATHER SERVICE MILWAUKEE/SULLIVAN WI
200 AM CDT WED JUN 03 2015

NOTE: "FAIR" INDICATES FEW OR NO CLOUDS BELOW 12,000 FEET WITH NO
SIGNIFICANT WEATHER AND/OR OBSTRUCTIONS TO VISIBILITY.

WIZ001-002-006>008-014>016-023>028-030800-
NORTHWEST WISCONSIN

CITY           SKY/WX    TMP DP  RH WIND       PRES   REMARKS
SUPERIOR ARPT  MOCLDY    44  40  83 E3        29.90S
ASHLAND        PTCLDY    54  49  83 S5        29.92S
HAYWARD        CLEAR     60  49  66 S7        29.93R
SIREN          CLOUDY    64  51  64 S9        29.91R
CUMBERLAND     PTCLDY    55  50  82 S8        29.93S
RICE LAKE      PTCLDY    60  50  69 SE8       29.95R
CHETEK         PTCLDY    59  50  73 SE10      29.95R
LADYSMITH      PTCLDY    58  48  69 SE6       29.98F
EAU CLAIRE     CLEAR     60  48  64 S5        29.95F
MENOMONIE      CLEAR     58  51  77 E5        29.95R
NEW RICHMOND   CLOUDY    62  51  67 S9        29.93S
OSCEOLA        MOCLDY    62  52  69 SE10      29.93S
$$

WIZ003>005-009-010-017-018-030800-
NORTH CENTRAL WISCONSIN

CITY           SKY/WX    TMP DP  RH WIND       PRES   REMARKS
MANITOWISH WTR MOCLDY    57  45  64 S6        29.98F
ARBOR VITAE    MOCLDY    57  43  59 S7        29.99F
WOODRUFF       MOCLDY    57  43  59 S7        29.99F
RHINELANDER    MOCLDY    55  42  61 SE6       30.02F
EAGLE RIVER    MOCLDY    53  39  60 S5        30.01F
LAND O LAKES   PTCLDY    55  40  57 S6        30.01F
PHILLIPS       MOCLDY    57  45  62 S7        29.97F
TOMAHAWK       MOCLDY    52  43  70 CALM      30.01F
MEDFORD        MOCLDY    55  46  69 S7        30.00F
MERRILL        MOCLDY    55  45  68 S3        30.03F
$$

WIZ029-030-035-036-043>047-030800-
CENTRAL WISCONSIN

CITY           SKY/WX    TMP DP  RH WIND       PRES   REMARKS
WAUSAU         PTCLDY    55  46  71 SE5       30.01F
MOSINEE        PTCLDY    52  46  82 SE6       30.03S
MARSHFIELD     PTCLDY    53  45  74 S6        30.01S
STEVENS POINT  CLEAR     54  45  71 S6        30.03F
WAUPACA        PTCLDY    50  46  84 CALM      30.05S
WAUTOMA        PTCLDY    50  48  92 CALM      30.05S
WISC RAPIDS    CLEAR     55  46  71 S6        30.03F
CAMP DOUGLAS   PTCLDY    46  46 100 SE3       30.01S
$$

WIZ011>013-019>022-031-037>040-048>050-030800-
NORTHEAST WISCONSIN

CITY           SKY/WX    TMP DP  RH WIND       PRES   REMARKS
ANTIGO         MOCLDY    49  43  80 S7        30.04F
SHAWANO        MOCLDY    52  40  62 CALM      30.05S
OCONTO         PTCLDY    52  49  90 SE6       30.05F
STURGEON BAY   CLEAR     48  36  61 S10       30.08F
GREEN BAY      PTCLDY    49  42  77 CALM      30.06F
MANITOWOC      PTCLDY    48  44  86 S5        30.08F
APPLETON       PTCLDY    54  45  71 S6        30.06S
CLINTONVILLE   PTCLDY    48  43  81 CALM      30.05S
OSHKOSH        PTCLDY    51  44  77 S10       30.05F
$$

WIZ032>034-041-042-053>061-030800-
SOUTHWEST WISCONSIN

CITY           SKY/WX    TMP DP  RH WIND       PRES   REMARKS
LA CROSSE      CLEAR     62  49  62 S8        29.98S
SPARTA         CLEAR     48  44  86 CALM      30.00F
VIROQUA        CLEAR     57  47  69 S7        30.01F
BOSCOBEL       PTCLDY    53  51  93 CALM      30.02S
PRAIRIE DU CHI PTCLDY    56  49  76 E6        30.01S
PLATTEVILLE    MOCLDY    58  49  69 SE7       30.03S
$$

WIZ056-057-062-063-064-067-068-030800-
SOUTH CENTRAL WISCONSIN

CITY           SKY/WX    TMP DP  RH WIND       PRES   REMARKS
REEDSBURG      MOCLDY    54  47  79 CALM      30.02F
BARABOO/DELLS  MOCLDY    54  46  73 SE3       30.04S
LONE ROCK      MOCLDY    54  48  80 E7        30.03F
MINERAL POINT  MOCLDY    55  45  67 SE6       30.04S
MADISON        MOCLDY    59  47  64 S9        30.05S
MIDDLETON      MOCLDY    60  46  59 S3        30.05S
WATERTOWN      MOCLDY    51  47  86 SE3       30.06F
MONROE         MOCLDY    55  46  71 SE9       30.05F
JANESVILLE     MOCLDY    55  46  71 S8        30.06S
$$

WIZ051-052-058>065-066-070>072-030800-
SOUTHEAST WISCONSIN

CITY           SKY/WX    TMP DP  RH WIND       PRES   REMARKS
MILWAUKEE      MOCLDY    50  42  74 S8        30.10S
WAUKESHA       PTCLDY    50  43  76 SE3       30.10S
MILWAUKEE/TIMM PTCLDY    50  41  71 CALM      30.10S
RACINE         CLEAR     49  41  74 S5        30.11S
BURLINGTON     PTCLDY    45  44  96 CALM      30.09S
KENOSHA        CLEAR     47  43  86 CALM      30.10R
FOND DU LAC    PTCLDY    50  44  80 S3        30.06F
SHEBOYGAN      PTCLDY    46  43  89 SW3       30.09S
WEST BEND      PTCLDY    46  41  81 CALM      30.08F
JUNEAU         MOCLDY    52  46  79 SE6       30.07S
$$

LSZ147-162-030800-
LAKE SUPERIOR

STATION/POSITION TIME  TEMP    WIND        PRES    WAVE
                       AIR SEA DIR/SP/G            HT/PER
                 (UTC) (F)     (DEG/KT/KT) (MB)    (FT/S)
W MID LAKE BUOY  0650   44 37  150/  6/  8   N/A     1
DEVILS ISLAND    0700   49      80/  5/  6   N/A
PORT WING        0540   44     360/  1/  2   N/A
SAXON HARBOR     0600   64     190/  2/  7   N/A
$$

LMZ867-665-643>646-030800-
LAKE MICHIGAN

STATION/POSITION TIME  TEMP    WIND        PRES    WAVE
                       AIR SEA DIR/SP/G            HT/PER
                 (UTC) (F)     (DEG/KT/KT) (MB)    (FT/S)
CHAMBERS ISLAND  0600   51     150/  4/ 10   N/A
N MID LAKE BUOY  0650   42 37  160/  8/  8   N/A     0
NORTHPORT PIER   0600   51     170/  6/  9   N/A
SISTER BAY       0518   47     140/  9/ 14   N/A
ALGOMA LAKESHORE 0639          210/  8/  9   N/A
KEWAUNEE LAKESHO 0600   48                   N/A
SHEBOYGAN LAKESH 0700   48     190/  6/  6   N/A
PORT WASHINGTON  0640   48        CALM       N/A
ATWATER BUOY     0700   49 46  130/  6/  6   N/A
MILWAUKEE LAKESH 0700   50     120/  3/  5   N/A
S MID LAKE BUOY  0650   46 38  120/  8/ 10   N/A
KENOSHA   LAKESH 0700   51     190/  4/  5   N/A
$$

TC  - TEMPERATURE IN CELSIUS
VSB - VISIBILITY IN STATUTE MILES
WCI - WIND CHILL INDEX
HX  - HEAT INDEX




USA.gov is the U.S. government's official web portal to all federal, state and local government web resources and services.